Theta_e
311 311 311 310 310 309 309 309 308 308 307 306 306 305 304 302 301 300 299 299 298 297 296 295 295 294 293 293 293 293 293 293 293 293 293 293 293 293 293 293 294 293 292 290 289 289 288 288 287 287 287 286 286 286 285 285 285 285 284 284 284 284 284 284 284 287 289 289 288 287 286 285 286 286 285 286 286 287 287 287 287 287 286 287 287
312 311 311 310 310 310 309 309 308 307 307 306 305 305 304 303 301 300 299 299 298 297 296 295 294 294 293 293 292 292 292 293 293 293 293 293 293 293 293 293 293 293 291 289 289 288 288 288 287 287 286 286 286 286 285 285 285 284 284 284 284 284 284 284 284 285 288 289 288 287 286 285 286 286 285 286 286 286 286 286 287 287 286 285 286
312 312 311 311 311 310 309 309 308 307 307 306 306 305 304 303 301 300 299 299 297 296 295 294 294 293 293 292 292 292 292 292 293 293 293 293 293 293 293 293 293 292 291 289 289 288 288 287 287 287 286 286 286 286 285 285 285 284 284 284 284 284 283 284 284 284 285 287 287 287 286 285 286 286 286 286 286 285 285 286 286 286 285 284 284
312 311 311 311 310 310 309 308 308 307 307 307 306 305 304 303 302 300 299 298 297 295 294 294 293 293 293 292 292 291 292 292 292 293 293 293 293 293 293 293 292 292 290 289 289 288 288 287 287 287 286 286 286 286 285 285 284 284 284 283 283 283 283 283 284 284 284 285 286 286 285 285 286 285 285 285 286 284 285 286 285 285 284 283 283
311 311 311 310 310 310 309 308 308 308 308 307 306 305 304 303 302 301 299 298 296 295 294 293 293 293 293 292 291 291 291 292 292 292 292 292 292 292 292 292 292 291 289 289 288 288 287 287 287 286 286 286 286 286 285 284 284 284 283 283 283 283 283 283 284 284 284 285 285 285 285 286 285 284 284 284 284 284 284 284 283 282 282 283 283
311 310 310 309 309 309 309 309 308 308 308 307 306 305 304 303 302 301 299 297 296 295 294 293 293 293 293 292 291 291 291 291 292 292 292 292 292 292 292 292 291 290 289 288 288 288 287 287 286 286 286 286 286 285 285 284 284 284 283 283 283 283 283 284 284 284 284 284 285 285 286 285 284 284 284 282 280 280 282 282 281 279 279 282 283
310 310 309 309 309 309 309 309 309 309 308 306 306 304 303 303 301 300 299 297 296 294 294 293 293 292 292 292 291 290 290 291 291 291 292 292 292 292 292 291 290 289 288 288 288 287 287 286 286 286 286 286 286 285 284 284 284 283 283 283 283 283 283 283 283 283 283 283 283 283 284 284 283 283 282 280 277 277 278 279 280 280 278 278 281
310 310 309 309 309 309 309 309 308 308 306 305 304 303 303 302 301 299 298 297 296 295 294 293 293 292 292 291 291 290 290 290 291 291 291 291 291 291 291 291 290 289 288 288 287 287 286 286 286 286 286 285 285 284 284 284 283 283 283 283 283 283 283 283 282 281 280 279 280 280 280 281 280 280 279 278 277 277 277 277 278 279 279 277 278
310 309 308 309 309 309 309 308 307 306 305 303 303 303 302 302 300 299 297 296 296 295 294 293 292 292 291 291 290 290 290 290 290 291 291 291 291 291 291 290 289 288 288 287 287 286 286 286 286 286 285 284 284 284 284 284 284 284 283 283 283 283 282 281 280 279 278 277 277 277 277 277 277 277 277 277 277 277 277 277 277 277 277 277 278
310 309 309 309 309 309 308 307 306 305 304 303 303 302 302 301 300 299 297 296 295 294 293 293 292 292 291 291 290 289 289 289 290 290 290 290 290 290 290 289 288 288 288 287 286 286 286 286 285 285 284 284 284 284 284 284 283 283 283 282 282 281 280 279 278 277 277 277 277 277 277 277 277 277 277 277 277 277 277 277 277 277 277 277 277
310 309 310 310 309 308 307 307 306 305 304 303 302 302 301 300 299 298 297 295 294 294 293 293 292 291 291 290 290 289 289 289 289 290 290 290 290 290 289 289 288 288 287 287 286 286 286 286 285 285 285 285 285 284 284 283 282 282 282 282 281 280 278 278 277 277 277 277 277 277 277 277 277 277 277 277 277 277 277 277 277 277 277 277 277
310 310 310 310 309 308 307 306 306 305 304 303 302 301 300 299 299 298 297 295 294 293 293 292 292 291 291 290 290 289 289 289 289 289 289 290 290 289 289 288 288 287 287 287 287 287 286 286 285 286 286 285 285 284 283 283 282 282 282 282 281 279 277 277 277 277 277 277 277 277 277 277 277 277 277 277 277 277 277 277 277 277 277 277 277
310 310 310 310 308 307 306 306 305 305 304 303 301 300 300 299 298 298 297 295 294 293 293 292 291 291 290 290 289 289 288 288 289 289 289 289 289 288 288 287 287 287 287 287 287 287 286 286 286 286 286 285 284 284 283 282 282 282 282 282 281 279 278 277 277 277 277 277 276 276 276 276 277 277 277 277 277 277 277 277 277 277 277 277 277
310 310 309 308 308 306 306 305 305 304 303 302 301 300 299 299 298 297 296 295 294 293 292 292 291 291 290 290 289 288 288 288 288 288 288 288 288 287 287 287 287 287 287 287 287 286 286 286 286 286 285 284 283 283 282 282 282 282 282 281 281 279 278 277 276 276 276 276 276 276 276 276 277 276 276 276 277 277 277 277 277 277 277 277 277
309 309 308 307 307 306 305 304 304 303 303 302 301 300 299 298 298 297 296 295 294 293 293 292 292 291 290 289 289 288 287 287 287 287 287 287 287 286 286 286 286 286 286 287 287 287 287 286 286 285 284 283 282 282 282 282 282 282 281 280 279 278 277 277 276 276 276 276 276 277 277 277 276 276 276 276 277 277 277 277 277 277 277 277 277
308 308 308 307 306 305 304 304 303 303 302 301 301 300 299 298 298 296 295 294 293 292 292 292 291 291 290 289 288 287 287 287 287 287 287 286 286 286 286 286 287 287 287 288 288 287 286 285 285 284 283 283 282 282 282 281 281 280 279 278 277 277 277 277 276 276 276 276 276 276 276 276 276 276 276 276 276 277 277 276 276 276 276 276 276
309 308 308 307 306 304 303 303 303 303 302 302 301 300 299 298 297 296 295 294 293 292 292 291 291 290 290 289 288 287 286 286 286 286 286 286 286 286 287 287 287 287 288 288 288 287 286 285 284 283 282 282 282 281 281 281 280 279 278 277 276 276 277 277 276 276 276 275 275 275 275 275 275 276 276 275 276 275 275 274 275 275 274 274 274
308 308 307 306 304 303 302 302 302 302 302 301 301 300 299 298 297 295 294 293 293 292 292 291 290 290 289 288 287 286 286 286 286 286 286 285 285 286 287 287 287 287 288 288 287 286 285 284 283 282 282 282 281 281 281 280 279 278 277 276 276 276 276 277 276 276 275 275 275 275 275 275 275 275 275 275 275 275 273 273 273 273 272 273 273
307 306 306 304 303 302 301 300 300 300 300 300 300 299 298 297 296 295 293 293 292 292 291 291 290 289 289 288 287 286 286 286 286 286 285 285 285 286 287 287 287 287 287 287 286 285 284 283 282 281 281 281 281 281 280 279 278 277 276 276 275 276 276 276 276 275 275 274 275 275 276 275 275 275 275 276 275 274 272 271 272 272 272 273 273
304 304 303 302 302 301 300 300 299 299 299 299 299 298 298 296 296 294 293 292 292 291 291 290 289 289 288 287 286 285 286 285 285 285 285 285 286 286 287 287 287 287 287 286 284 284 283 282 281 281 281 281 281 280 280 279 278 277 276 276 276 276 276 275 275 275 274 274 275 275 275 275 275 275 275 274 273 272 271 271 271 271 272 272 273
302 302 301 301 301 301 300 299 299 298 299 298 298 297 297 296 295 294 293 292 291 291 290 289 288 288 288 287 285 285 285 285 285 285 285 285 286 287 286 286 286 286 285 284 283 283 282 282 281 280 280 280 280 280 280 279 278 277 277 276 276 275 274 274 274 275 275 275 275 275 275 276 276 274 273 273 272 271 271 271 271 271 271 272 272
302 301 301 300 299 299 299 298 298 297 297 297 297 296 296 295 294 293 293 292 291 290 289 289 288 287 287 286 285 285 285 284 284 285 285 285 286 286 286 286 286 285 283 283 282 282 281 281 281 280 280 279 279 280 279 278 277 277 277 276 275 275 275 275 275 276 275 275 275 275 276 276 275 274 273 273 272 270 270 271 271 271 271 271 271
301 301 301 300 299 298 297 297 297 296 296 296 296 295 295 294 293 292 292 291 290 289 288 288 287 287 286 285 285 284 284 284 284 284 285 285 285 285 286 286 285 283 282 282 282 281 281 280 280 280 279 279 279 279 278 277 277 277 276 276 275 275 276 276 276 275 275 275 275 276 276 275 274 273 273 272 271 270 270 270 270 270 270 270 271
299 300 300 301 300 300 298 297 296 296 296 295 294 294 294 293 292 291 291 290 289 288 288 287 286 286 286 285 284 284 283 283 284 284 285 284 284 284 285 285 283 282 282 282 281 281 280 280 279 279 279 279 279 278 277 277 276 276 275 276 276 276 276 275 275 275 275 275 275 275 275 274 273 273 272 272 271 270 270 270 270 270 270 270 270
299 299 299 299 300 300 300 299 298 297 296 296 295 294 293 292 292 291 290 289 288 288 287 287 286 286 285 285 284 284 283 283 283 284 284 284 283 283 283 283 282 281 281 282 281 280 280 279 279 279 279 279 278 277 277 276 276 275 275 276 276 276 275 274 274 274 275 275 275 275 275 274 273 273 272 271 271 271 270 270 270 270 270 270 270
298 298 299 299 299 299 299 299 298 298 297 296 296 294 293 292 291 291 290 289 288 287 287 286 286 285 285 284 284 283 283 283 283 283 283 283 283 281 280 280 280 280 281 281 280 280 279 279 279 279 278 278 277 277 276 276 275 275 275 275 275 275 274 274 274 274 274 274 274 274 274 274 274 273 272 271 271 271 270 270 270 270 270 270 270
297 297 298 298 298 298 298 298 298 297 297 296 296 295 294 292 291 290 289 289 288 287 286 286 286 285 285 284 283 283 283 283 283 283 283 283 282 280 279 279 279 279 280 281 280 279 279 279 278 278 277 277 277 276 275 275 275 275 275 275 275 274 274 274 274 274 273 273 273 274 274 274 273 272 271 271 270 270 270 270 270 270 270 270 270
297 297 297 297 297 297 297 297 297 296 296 296 296 296 295 293 292 292 291 291 290 289 288 287 286 286 285 284 283 282 282 283 283 284 284 284 282 280 279 280 280 280 280 280 279 279 278 278 278 277 277 277 276 275 274 274 274 275 275 275 275 274 274 274 273 273 273 273 273 274 274 273 272 272 271 270 270 270 270 270 270 270 270 270 270
297 297 297 296 296 295 295 295 295 295 295 295 294 294 294 293 293 292 292 291 291 290 290 289 288 287 285 284 283 283 283 283 284 285 285 284 282 281 281 281 280 280 280 279 279 278 278 277 277 277 276 276 275 274 274 274 274 275 275 275 274 274 274 274 273 273 273 273 273 273 273 273 272 271 270 269 270 270 270 270 270 270 270 270 270
295 296 296 296 296 295 294 294 294 293 293 293 292 291 291 290 289 289 289 288 287 287 288 288 288 287 286 284 284 284 284 285 286 285 283 281 279 279 280 280 280 279 279 279 279 278 277 277 277 276 275 275 274 274 274 274 274 274 275 275 275 274 274 273 273 273 273 273 273 272 272 271 271 270 269 269 270 270 270 270 270 270 270 270 270
294 295 295 295 295 295 293 293 293 292 291 291 290 289 288 287 286 286 285 285 285 284 283 284 285 285 284 284 283 283 284 285 285 284 281 278 278 278 278 279 278 279 279 279 278 278 277 276 276 275 274 274 274 274 274 274 274 274 274 275 274 274 273 273 273 272 273 272 272 272 271 270 270 269 269 269 270 270 270 270 270 270 270 270 270
292 293 294 295 295 294 293 292 292 291 290 289 288 287 287 286 284 283 282 282 282 281 281 281 281 282 282 282 282 283 283 284 283 281 279 277 277 278 278 278 279 279 279 278 277 277 276 276 275 274 274 273 273 273 273 273 274 274 274 274 274 274 273 273 272 272 272 272 272 271 270 269 269 269 269 269 270 270 270 270 270 270 270 269 269
290 291 292 293 294 294 293 292 291 290 290 289 288 287 286 285 284 282 281 280 279 279 279 279 279 279 280 280 281 283 283 282 280 279 278 277 278 278 278 278 278 278 278 277 277 276 276 275 274 274 273 273 273 273 273 273 273 274 274 274 274 273 273 272 272 272 272 272 271 271 270 269 269 269 269 269 270 270 270 270 270 270 270 269 269
287 289 290 291 292 293 293 292 291 290 289 288 288 287 286 285 284 282 280 278 277 277 277 277 277 278 279 280 280 281 281 280 278 277 277 277 278 278 278 278 278 277 276 276 276 276 275 275 274 274 273 273 273 273 273 273 273 273 273 273 273 273 272 272 271 271 272 272 271 270 269 269 269 269 269 270 270 270 270 270 270 269 269 269 269
285 287 288 289 290 291 292 291 291 290 289 287 287 286 285 283 282 280 279 279 277 276 276 276 276 277 278 278 278 278 278 278 277 277 277 277 278 278 278 278 277 276 276 276 275 275 275 274 273 273 273 273 273 273 273 273 273 273 273 273 273 273 272 271 271 271 271 271 271 270 269 269 269 269 269 269 270 270 270 270 269 269 269 269 269
284 285 286 287 289 289 290 290 290 289 288 286 285 284 282 281 280 279 278 278 277 276 276 276 276 276 276 277 277 277 277 277 276 276 276 276 277 278 278 278 277 276 276 275 275 274 274 274 273 273 273 273 273 273 273 273 273 273 273 273 273 272 272 271 270 271 271 271 271 270 269 269 269 269 269 269 270 270 270 269 269 269 269 269 269
284 285 285 286 287 288 288 289 289 288 286 284 283 282 281 280 279 278 277 276 276 276 276 276 276 275 275 275 276 276 277 276 276 275 275 275 276 277 277 276 276 276 275 275 274 274 274 273 273 273 273 273 273 273 273 273 273 273 273 273 272 272 271 270 270 270 270 271 271 270 269 269 269 269 269 269 270 270 269 269 269 269 269 269 269
283 284 285 285 286 286 287 287 287 286 284 282 281 280 279 278 277 276 276 276 276 276 276 276 276 275 275 275 276 276 276 275 275 274 275 276 276 276 275 275 275 275 275 274 274 273 274 273 273 273 273 273 273 273 273 273 273 273 273 272 272 272 271 270 270 270 270 271 270 269 269 269 269 269 269 270 270 269 269 269 269 269 269 269 269
282 283 284 285 284 285 286 286 285 284 282 280 279 278 277 277 276 276 276 276 276 276 276 275 275 275 275 275 276 276 275 275 275 276 276 276 276 275 275 275 275 274 274 274 273 273 273 273 273 273 273 272 272 273 273 273 273 273 272 272 272 272 271 270 270 270 270 270 270 269 269 269 269 269 269 269 269 269 269 269 269 269 269 269 269
280 281 283 284 284 284 284 284 283 282 281 279 278 277 276 276 275 275 276 276 276 276 275 275 275 275 275 276 276 276 276 276 277 277 277 276 275 275 275 275 275 274 274 274 273 273 273 273 273 272 272 272 272 273 273 273 273 272 272 272 272 271 271 270 270 270 270 270 270 269 269 269 269 269 269 269 269 269 269 269 269 269 269 269 269
278 279 281 282 283 283 282 282 281 280 279 279 278 277 276 275 275 275 276 276 275 275 275 275 275 275 276 277 277 277 277 277 277 276 276 276 275 275 274 274 274 274 274 273 273 273 273 273 272 272 272 272 272 272 272 272 272 272 272 272 271 271 270 270 270 270 270 270 269 269 269 269 269 269 269 269 269 269 269 269 269 269 269 269 269
278 278 279 281 281 281 281 280 280 279 278 277 276 276 275 275 275 275 275 275 275 275 275 275 276 276 276 276 276 276 277 277 276 275 275 274 274 274 274 274 274 274 273 273 273 273 273 272 272 272 272 272 272 272 272 272 272 272 272 272 271 271 270 270 270 270 270 269 269 269 268 269 269 269 269 269 269 269 269 268 269 269 269 269 269
278 278 279 280 280 280 280 279 278 277 276 276 275 274 274 274 274 274 275 275 275 275 275 276 277 276 274 274 275 276 276 275 275 275 274 274 274 274 274 274 274 273 273 273 273 273 272 272 272 272 272 272 272 272 272 272 272 271 271 271 271 270 270 270 270 269 269 269 269 268 268 269 269 269 269 269 269 269 268 268 269 269 269 269 268
277 277 278 279 279 279 278 278 277 276 275 275 274 274 274 274 274 274 274 274 275 275 276 277 276 274 273 274 275 275 274 274 274 274 274 274 274 274 274 273 273 273 273 273 273 272 272 272 272 272 272 272 272 272 271 271 271 271 271 271 270 270 270 270 269 269 269 269 268 268 268 269 269 268 268 269 268 268 268 268 269 269 269 268 268
276 276 277 277 277 277 277 276 276 275 274 274 273 273 273 273 274 274 274 274 275 276 276 275 274 273 274 275 275 274 273 274 274 274 273 273 274 274 273 273 273 273 273 273 272 272 272 272 272 272 271 271 271 271 271 271 271 271 270 270 270 270 270 269 269 269 269 268 268 268 269 269 268 268 268 268 268 268 268 268 268 269 268 268 268
275 275 276 276 276 276 275 275 274 274 273 273 273 273 273 273 273 273 274 275 275 275 274 273 273 274 275 275 274 273 274 274 274 273 273 273 273 273 273 273 273 273 272 272 272 272 272 272 271 271 271 271 271 271 271 271 271 271 270 270 270 270 269 269 269 269 269 268 268 269 269 268 268 268 268 268 268 268 268 268 268 268 268 268 268
274 274 275 275 275 274 274 273 273 273 273 272 272 272 272 272 273 273 274 274 274 274 273 274 274 275 275 274 273 274 274 274 273 273 273 273 273 273 273 273 272 272 272 272 272 272 271 271 271 271 271 271 271 271 271 271 271 271 270 270 270 270 269 269 269 269 269 268 268 269 269 268 268 268 268 268 268 268 268 268 268 269 268 268 268
273 273 273 273 273 273 273 272 272 272 272 272 272 272 272 272 272 273 273 273 273 273 274 275 275 274 274 274 274 274 274 273 273 273 273 273 272 272 272 272 272 272 272 272 272 271 271 271 271 270 270 271 271 271 271 271 271 271 271 270 270 270 270 269 270 270 269 269 268 269 268 268 268 268 268 268 268 268 268 268 268 269 268 268 268
272 272 272 272 272 272 272 271 271 271 271 271 271 271 272 272 272 272 272 272 273 274 275 275 275 274 273 273 273 273 273 273 272 272 272 272 272 272 272 272 272 272 271 271 271 271 271 270 270 270 270 270 270 271 271 271 271 271 271 271 270 270 270 270 270 270 269 268 268 269 268 268 268 268 268 268 268 268 268 268 268 268 268 268 268
271 271 271 271 271 271 271 271 271 271 271 271 271 271 271 272 272 272 273 274 275 275 275 274 273 273 273 273 273 273 272 272 272 272 272 272 272 272 272 271 271 271 271 271 271 271 270 270 270 270 270 270 270 270 271 271 271 271 271 270 270 270 270 270 270 270 269 268 268 268 268 268 268 268 268 268 268 268 268 268 269 268 268 268 268
270 270 270 270 270 270 270 270 270 270 270 271 271 271 271 272 273 273 274 275 275 274 273 273 272 272 273 273 273 272 272 271 272 272 272 272 272 271 271 271 271 271 271 271 270 270 270 270 270 270 270 269 270 270 270 270 271 271 270 270 271 270 270 270 270 269 269 268 268 268 268 268 268 268 268 268 268 268 268 268 269 269 268 268 268
Wind_Speed
45 46 46 46 46 46 45 45 46 47 47 47 48 47 48 48 48 47 47 47 46 46 44 43 44 45 45 45 44 43 41 39 36 34 31 28 26 23 22 23 24 25 25 25 23 21 21 20 20 20 19 18 17 17 18 19 21 22 23 26 28 29 31 33 39 50 54 51 51 55 56 55 55 54 54 55 53 50 50 50 50 50 51 52 52
46 47 47 48 48 48 48 48 49 49 49 49 49 49 49 50 49 49 48 48 47 47 45 44 44 44 45 45 44 43 42 39 37 35 32 30 27 25 24 24 24 25 25 24 22 21 21 21 20 20 19 18 18 18 19 20 22 24 25 27 29 30 31 33 37 45 53 55 52 54 56 55 55 55 54 54 53 51 51 51 51 51 51 53 53
48 49 50 50 50 50 51 51 52 52 51 51 51 51 51 51 51 51 50 49 49 48 46 45 44 44 45 45 45 44 42 40 38 35 32 30 27 25 25 25 25 26 25 23 22 21 21 21 20 19 18 18 19 19 21 22 24 25 27 28 30 31 31 33 36 41 49 55 54 53 56 56 55 55 53 52 52 52 53 53 53 53 53 54 54
48 51 52 52 53 54 54 54 54 54 53 53 53 52 52 52 52 52 51 50 50 49 47 46 45 44 45 45 46 45 44 41 39 36 33 30 28 26 26 26 26 26 25 23 22 22 21 20 19 19 18 18 19 21 22 24 25 26 28 29 29 31 31 32 35 38 45 52 55 53 54 56 55 53 52 52 52 53 54 54 55 57 56 55 55
49 52 53 54 56 56 56 56 56 56 55 55 54 54 53 53 53 53 52 52 51 49 48 47 46 45 45 46 46 46 45 42 40 37 34 31 29 28 27 27 27 26 24 23 22 22 21 20 19 18 18 19 20 21 23 24 25 27 28 29 29 30 32 32 34 37 41 49 54 53 52 53 54 52 50 51 54 55 55 55 56 58 59 57 56
50 52 53 54 56 56 57 57 57 57 57 57 55 54 54 54 53 53 53 53 52 50 49 48 47 46 45 46 46 46 45 43 41 38 35 33 31 29 28 28 28 26 24 23 22 21 20 20 19 18 18 19 21 22 23 24 26 27 28 29 30 31 32 34 35 37 40 45 50 53 52 51 52 53 50 49 54 56 57 61 60 55 56 60 61
50 53 53 53 54 56 56 55 54 56 58 58 56 55 54 54 54 54 53 53 52 52 50 49 48 46 45 45 46 47 46 44 42 39 36 34 32 30 29 29 28 25 23 23 22 20 20 19 18 18 18 19 21 22 23 24 26 27 28 28 30 31 33 34 35 37 39 42 46 50 53 52 52 54 53 51 54 54 52 59 65 62 57 59 62
51 52 53 52 53 53 52 51 52 54 56 56 56 55 55 54 53 53 53 53 53 52 51 49 48 47 45 45 46 47 47 46 43 40 38 35 33 31 30 29 27 25 23 22 21 20 19 18 17 17 18 19 21 21 23 24 26 27 28 28 29 31 32 33 34 36 38 42 46 48 52 54 55 57 57 56 56 56 52 51 61 68 66 63 59
50 51 51 51 50 49 49 50 51 52 53 55 56 55 55 54 53 52 52 52 52 52 50 49 48 47 46 46 47 49 48 46 44 41 39 36 34 32 30 28 26 24 23 22 20 19 18 16 16 17 17 18 20 21 22 25 27 28 29 29 30 31 31 31 32 35 37 41 45 47 51 55 57 58 60 60 58 59 58 55 58 63 63 64 63
48 48 48 48 47 47 50 51 50 50 51 52 54 55 54 53 52 51 51 51 51 51 50 49 48 47 47 47 49 50 49 47 44 42 39 36 34 32 30 28 26 25 23 21 20 18 17 16 16 17 17 18 20 21 23 25 26 27 28 28 28 28 29 31 31 33 37 41 44 47 49 54 56 56 59 62 60 58 56 53 55 57 53 57 65
46 45 45 46 48 50 51 51 50 49 49 50 52 54 53 52 50 50 49 50 50 50 50 49 49 48 48 49 49 50 50 48 45 43 40 37 35 33 31 29 27 25 23 21 19 18 17 17 17 17 18 19 20 22 23 24 24 25 25 25 25 24 24 27 30 32 36 40 43 44 45 50 55 55 55 57 56 56 52 46 47 50 49 50 59
46 45 46 48 51 53 52 51 50 49 49 50 51 52 51 50 49 48 49 49 50 50 50 50 49 49 49 49 50 50 50 48 46 44 41 39 36 34 31 29 27 25 23 21 19 18 17 17 17 18 19 20 21 22 22 23 24 24 25 25 24 23 21 24 28 31 34 38 42 44 44 46 51 52 51 49 50 53 53 51 49 48 48 51 55
47 46 47 50 52 52 52 52 51 49 49 49 49 50 49 48 47 48 48 48 49 50 50 49 49 49 49 49 50 50 50 48 46 44 42 39 36 33 31 29 27 25 23 21 19 18 18 18 18 19 20 21 21 22 22 24 24 25 26 26 26 25 23 24 26 29 32 36 42 45 43 43 47 51 50 47 48 52 54 57 57 53 54 59 60
47 47 48 50 51 51 52 52 50 49 48 48 48 48 47 47 46 46 47 47 48 49 49 49 49 48 49 49 50 50 49 47 45 43 41 38 35 32 30 28 27 25 23 21 20 19 18 18 19 20 21 21 20 21 22 23 25 26 27 27 27 27 27 27 27 28 30 33 38 43 43 42 45 49 50 47 47 51 54 57 60 58 59 64 65
46 46 47 48 49 49 51 50 50 49 47 47 47 46 46 45 45 45 46 46 47 47 47 48 47 47 48 48 49 50 49 46 44 42 40 37 35 32 30 29 27 25 23 22 20 19 18 19 20 21 21 20 19 20 22 24 25 26 26 26 27 27 27 29 29 29 31 32 36 41 43 43 43 45 47 47 47 49 51 54 57 56 58 63 64
42 44 45 45 46 48 48 49 48 48 47 46 46 45 45 45 44 45 45 45 45 46 46 46 46 47 47 48 50 50 48 46 44 42 39 36 35 33 31 28 26 24 23 22 21 19 18 19 21 21 21 19 19 20 21 22 22 23 24 25 26 27 27 28 28 28 29 32 35 39 42 42 41 41 41 42 44 46 48 52 55 54 56 60 62
38 40 41 42 43 45 46 47 47 46 46 46 45 45 44 44 44 44 44 44 45 45 46 46 46 46 47 48 50 50 48 47 44 41 38 36 36 34 30 27 26 24 23 22 21 19 19 20 21 21 20 19 19 19 19 19 20 22 24 25 25 27 29 30 30 29 30 33 35 38 39 38 39 40 41 42 44 46 48 54 56 54 53 55 57
32 34 36 38 40 41 43 45 45 46 46 45 44 43 42 42 42 42 43 43 43 43 44 44 45 45 46 48 49 49 49 46 44 41 38 37 36 33 29 27 25 24 23 22 21 20 20 21 21 20 19 18 18 18 17 17 20 21 22 24 26 29 30 30 31 32 33 35 36 37 38 39 41 44 45 45 44 41 41 45 47 46 47 50 52
26 28 30 33 36 38 40 42 44 45 44 42 41 40 40 40 41 41 41 41 41 41 43 44 44 45 46 48 49 49 48 46 44 41 38 37 36 32 28 27 25 24 23 22 21 20 21 21 20 18 18 18 17 17 16 17 19 19 20 24 28 30 30 29 31 32 33 35 38 39 40 41 43 45 44 42 39 35 33 35 36 37 40 46 49
25 25 26 28 31 34 36 40 42 42 41 40 39 39 39 39 39 39 40 40 40 41 42 43 44 45 46 48 50 50 49 46 43 41 38 37 35 31 28 27 25 24 24 22 21 22 22 20 18 16 16 17 16 16 16 16 16 18 21 24 27 28 27 27 29 31 33 36 39 40 41 42 41 40 39 38 36 34 32 31 30 32 35 40 45
25 25 25 26 27 31 34 37 39 40 39 39 39 39 38 38 38 39 39 39 40 42 42 43 44 45 46 48 50 51 49 46 43 41 38 36 34 31 29 27 25 24 23 22 22 22 22 19 16 15 15 15 15 15 15 14 14 17 21 23 24 25 25 26 30 32 34 37 38 39 40 40 39 37 36 36 35 33 30 27 27 29 31 36 42
23 24 24 25 26 29 32 35 37 37 37 38 38 38 38 38 39 38 38 39 41 42 43 44 45 46 47 49 51 50 48 45 43 41 39 37 35 32 29 26 25 24 23 22 23 22 20 17 15 14 14 14 14 14 13 12 14 17 19 20 21 23 24 28 31 33 34 36 37 38 38 38 37 37 36 36 35 31 28 27 28 30 34 37 41
22 22 22 23 24 27 30 33 34 35 36 36 37 38 38 39 39 39 39 41 42 44 45 46 47 48 48 50 51 50 48 46 44 42 39 37 35 32 29 26 25 24 23 23 23 22 18 15 14 14 14 14 13 12 11 12 14 15 16 18 20 23 26 29 30 31 34 35 36 37 37 36 36 37 37 37 36 34 32 33 35 37 39 42 44
26 24 22 21 22 24 27 30 32 34 35 35 36 38 39 39 40 40 41 42 43 45 47 48 49 49 50 51 53 52 50 48 45 42 40 37 35 32 29 26 25 25 24 24 23 20 16 14 14 14 13 13 11 10 11 12 14 15 16 18 21 23 26 28 29 31 33 34 34 36 36 35 36 36 37 38 38 38 39 39 40 41 42 46 48
29 28 27 25 24 24 26 28 31 33 34 35 37 38 40 41 42 42 43 44 46 47 48 49 50 51 51 53 55 54 51 48 45 42 40 37 35 32 29 27 25 24 25 24 21 17 15 14 15 14 12 11 10 9 10 11 13 14 16 18 21 23 24 26 28 30 32 33 34 35 36 36 36 36 36 38 39 41 42 44 44 45 46 49 52
31 31 30 29 28 28 29 30 31 33 34 35 36 39 41 42 43 44 45 46 47 48 49 50 51 52 53 54 55 54 52 49 46 44 41 38 35 32 29 27 25 25 25 23 19 17 16 15 14 12 10 9 9 9 10 11 12 14 16 18 20 21 23 25 27 29 31 32 33 35 36 36 37 37 37 39 41 42 44 46 48 50 50 52 55
32 32 32 32 32 32 32 33 34 35 36 37 37 39 41 43 44 46 46 48 49 50 51 52 52 53 55 56 56 54 52 50 48 45 43 39 36 33 30 29 28 27 26 23 19 17 16 15 13 11 9 9 9 9 10 11 13 14 16 18 19 20 22 24 26 27 29 31 33 35 36 36 37 38 39 40 43 44 44 46 49 52 54 54 56
33 33 33 34 35 35 35 36 37 38 39 39 39 40 41 43 46 47 48 48 49 50 52 54 54 55 56 57 57 55 53 52 50 47 43 39 36 34 33 32 30 27 25 22 19 17 16 14 12 10 8 7 8 9 11 12 14 15 16 17 19 20 21 22 24 26 28 30 33 35 36 36 37 39 40 42 45 46 46 46 48 52 54 54 55
35 35 34 35 36 37 37 38 39 40 41 42 42 43 43 45 46 47 48 49 49 49 50 51 53 55 57 59 60 59 56 53 49 43 39 36 35 35 33 31 28 25 23 21 19 17 15 13 11 9 7 6 7 9 11 12 13 14 16 17 18 19 21 22 24 26 28 30 33 34 36 37 38 40 42 44 47 47 47 47 49 52 54 55 56
38 38 37 37 38 38 39 40 41 42 43 44 45 45 46 46 47 48 49 49 50 51 50 49 51 53 56 58 59 58 55 51 45 40 38 36 35 33 30 27 26 25 24 21 18 17 14 12 9 7 6 7 8 9 11 12 12 13 15 17 18 19 21 22 24 27 28 30 32 33 34 37 40 42 43 46 48 49 48 48 49 52 55 56 57
39 40 40 39 39 39 40 41 42 43 45 46 46 47 47 48 49 49 49 49 50 51 52 51 50 51 54 56 55 53 50 46 43 41 39 36 33 31 28 26 26 25 22 19 17 15 12 10 8 7 7 8 9 10 10 11 12 14 15 17 18 19 21 23 25 27 28 30 32 32 33 36 39 42 44 46 48 50 51 50 51 54 55 56 56
38 40 41 41 40 40 40 41 42 44 45 46 47 47 48 48 48 48 49 50 48 48 49 51 50 49 52 54 53 51 49 45 42 40 37 34 32 31 29 27 26 24 20 18 16 13 11 9 8 7 8 9 10 10 11 12 13 15 17 18 19 20 21 23 25 27 29 30 31 32 34 36 39 42 44 45 47 50 52 52 54 56 56 55 54
39 40 41 43 43 42 42 42 43 45 46 47 48 48 48 49 49 47 46 45 44 42 44 47 47 48 50 52 51 50 46 43 40 37 35 34 32 30 28 27 24 21 19 17 15 13 11 9 8 8 9 10 10 10 11 12 14 16 17 19 20 21 22 24 26 28 29 30 31 33 34 37 39 42 44 46 47 49 51 54 56 57 56 56 56
40 40 41 43 45 45 44 44 44 45 46 47 48 48 48 49 48 46 43 41 39 38 40 42 44 46 48 49 47 44 41 39 37 36 35 34 32 30 28 26 22 20 18 17 15 13 11 9 8 9 10 10 10 10 11 12 14 16 17 19 21 22 23 25 26 29 30 31 32 33 35 37 39 42 44 47 48 49 52 55 58 58 56 56 57
37 39 40 43 46 47 46 45 44 45 46 47 48 48 48 46 45 45 43 41 40 39 38 38 40 44 46 45 40 37 36 35 35 35 35 33 32 31 29 25 22 20 19 17 14 12 10 9 9 9 10 9 10 11 11 12 14 16 18 20 21 22 24 26 27 29 31 32 33 33 35 37 40 42 44 46 47 50 54 57 58 57 56 56 56
33 37 39 43 46 48 48 46 45 45 46 46 47 46 45 44 43 43 41 40 40 40 38 37 35 35 37 38 36 33 33 34 34 35 34 32 31 30 26 23 21 20 19 16 14 11 10 9 9 10 10 10 10 10 11 13 15 16 18 20 22 23 24 26 29 31 32 32 33 34 36 38 40 42 44 46 47 50 55 58 58 57 56 55 56
31 34 37 41 45 47 48 47 46 45 45 45 45 44 43 42 42 41 40 40 40 40 40 40 37 35 35 36 35 32 32 32 32 32 32 31 29 25 22 21 20 19 18 16 13 11 10 9 10 10 10 10 10 11 12 13 15 17 19 20 22 23 25 27 29 31 32 33 33 35 37 39 41 43 44 47 49 53 57 58 58 58 57 56 55
31 32 34 37 41 45 46 46 45 45 44 43 43 42 42 41 41 40 40 41 42 43 43 43 44 44 43 41 37 35 34 33 32 33 32 31 29 25 23 22 20 18 16 15 12 10 10 10 10 10 10 10 10 11 12 14 15 18 19 21 22 23 25 27 29 30 31 33 34 35 37 40 42 43 44 46 51 56 58 58 58 59 60 58 56
33 32 33 35 39 43 44 44 44 44 43 42 42 41 40 40 41 41 42 43 44 45 46 46 47 47 47 45 42 41 40 39 38 37 34 31 28 26 24 22 20 18 16 14 11 11 10 10 10 9 9 10 10 11 13 14 16 18 20 22 23 24 25 27 29 30 31 32 34 36 38 40 42 43 44 47 52 56 58 58 58 58 59 59 57
35 34 34 35 39 43 43 43 43 43 42 41 41 40 40 41 42 42 43 44 45 46 46 47 48 48 48 47 46 46 46 44 41 37 33 31 29 27 24 22 20 18 15 13 12 11 11 10 9 9 9 10 10 12 13 15 16 18 20 22 24 25 26 27 28 30 31 32 34 36 39 41 43 44 45 49 53 56 57 58 59 58 57 57 57
36 35 35 36 38 41 42 41 42 41 40 40 40 40 41 42 43 44 45 46 47 47 47 47 48 48 48 48 48 49 47 43 38 35 32 31 29 26 24 22 19 17 15 13 12 11 10 9 9 9 8 9 10 12 13 15 17 18 20 22 24 25 26 27 28 30 31 33 35 37 40 42 43 44 47 52 54 55 57 58 58 58 58 57 57
32 32 34 36 37 39 40 40 40 39 38 38 39 40 41 42 43 45 46 47 48 48 48 48 48 48 49 50 50 47 41 36 35 34 32 30 27 25 23 21 19 17 15 13 12 11 10 9 8 7 7 9 10 11 13 15 17 19 21 23 24 26 27 28 29 30 31 33 35 37 40 43 43 44 49 52 54 55 57 58 58 58 58 58 57
27 29 32 35 37 38 39 38 38 38 38 38 39 40 41 42 44 45 46 48 49 50 50 50 50 49 49 49 47 41 35 33 33 33 31 29 27 25 23 21 18 16 14 13 12 11 10 8 7 7 7 8 10 12 14 16 17 19 21 23 25 26 27 28 29 30 32 34 36 38 41 43 44 46 50 52 54 55 57 58 58 58 58 58 57
25 28 32 34 35 35 36 36 36 36 37 38 38 39 41 43 45 46 48 50 51 52 51 51 51 50 48 46 42 37 34 33 32 31 29 28 26 24 22 19 17 15 14 13 12 10 8 6 6 6 7 8 10 12 14 16 17 19 21 23 25 26 27 28 29 30 32 34 37 40 42 44 45 48 50 51 53 55 56 57 59 59 58 58 57
23 27 30 31 32 33 34 34 34 35 35 36 37 39 42 44 46 48 50 52 53 53 51 51 51 50 48 45 41 37 34 33 32 30 29 27 25 23 20 18 16 15 14 12 10 8 7 5 5 5 7 9 11 13 14 16 17 19 21 22 25 26 27 27 28 29 30 33 36 39 42 44 46 47 48 50 53 54 56 57 58 58 58 58 57
21 24 27 29 30 31 32 33 33 34 35 37 39 40 42 44 47 49 51 52 53 53 51 50 50 49 47 43 39 36 34 33 31 29 28 26 24 21 19 17 16 15 13 11 9 7 5 4 5 6 7 9 11 13 14 16 17 18 19 21 23 25 26 27 28 28 29 31 35 38 41 44 45 45 46 49 52 53 55 56 57 56 57 57 56
19 22 24 26 28 29 30 31 32 34 36 38 40 42 44 45 47 49 50 52 52 51 50 50 49 47 43 40 37 35 33 31 30 28 26 25 22 20 18 17 15 13 11 9 7 6 5 5 6 7 9 10 12 13 15 16 17 18 19 20 22 24 25 26 27 27 27 30 34 37 40 42 43 43 45 49 51 53 54 56 56 56 56 56 55
17 19 22 24 26 28 29 31 32 35 37 39 40 43 44 46 47 49 49 49 48 48 48 48 46 42 39 37 35 33 31 30 28 27 25 23 21 19 17 16 14 11 10 8 7 5 5 5 7 8 10 12 13 14 15 16 17 17 19 20 21 23 24 26 27 26 27 31 34 37 39 40 40 41 44 48 50 52 54 55 55 55 55 55 55
16 18 21 23 24 26 28 30 32 35 37 39 41 42 44 45 46 47 46 44 44 45 45 43 40 38 36 34 33 31 30 29 27 26 25 23 21 18 16 14 12 10 9 8 6 5 5 6 8 9 11 13 15 16 17 17 18 18 19 20 21 22 24 26 27 26 27 30 34 37 38 38 37 39 43 47 49 51 52 53 53 54 53 53 54
16 18 20 22 24 26 28 30 32 34 36 38 40 41 43 43 43 42 42 42 42 42 40 38 36 34 33 32 31 30 29 28 27 26 24 22 19 17 15 13 11 10 8 7 7 6 6 7 9 10 12 13 15 17 18 18 19 19 19 20 22 23 24 26 27 25 26 30 34 37 36 36 36 39 43 46 49 51 52 52 52 52 52 52 53
16 18 20 21 23 25 27 29 31 33 35 37 38 39 40 40 39 40 40 40 39 38 37 35 33 31 30 30 29 29 28 28 27 25 23 20 18 16 14 12 11 9 8 7 7 7 7 8 9 11 13 14 16 17 18 19 19 20 20 21 22 23 24 26 26 25 26 30 34 35 34 34 35 38 42 46 49 51 51 51 51 51 51 51 52
Wind_Direction
231 231 231 231 232 231 230 231 232 233 235 236 237 238 239 240 241 242 243 244 245 245 243 240 238 236 234 231 229 228 226 226 226 227 228 231 233 236 241 247 253 258 260 262 267 272 273 272 271 272 275 280 288 295 299 304 306 307 307 306 306 306 306 305 302 301 303 305 306 306 307 308 309 310 310 311 312 312 312 311 312 311 311 311 310
233 232 232 232 233 232 232 233 234 235 236 236 238 239 240 241 241 242 243 244 245 245 243 240 237 236 234 232 230 229 228 227 228 228 229 231 233 236 240 246 252 256 258 261 266 270 270 268 269 272 277 283 291 296 300 303 304 304 304 303 303 303 304 303 301 300 301 304 306 306 306 307 307 309 310 311 314 316 315 315 314 313 313 313 313
237 235 233 233 234 234 235 235 236 237 237 238 239 240 240 241 242 242 242 243 244 244 243 240 237 236 234 233 231 229 229 228 228 229 230 232 234 237 241 245 250 254 257 260 265 268 268 268 269 272 278 285 291 296 299 301 301 301 302 302 302 303 303 302 300 299 300 302 304 305 306 306 306 308 310 313 316 318 316 316 315 315 315 316 315
241 238 236 235 235 236 237 237 238 238 239 240 240 241 242 242 243 243 243 243 243 243 241 239 237 236 234 232 231 229 229 229 229 230 230 232 234 237 241 246 250 254 256 259 264 267 266 266 267 271 277 284 291 295 296 298 299 299 300 300 301 301 301 300 298 297 296 298 301 303 303 304 306 309 313 315 316 316 316 316 316 315 315 316 316
242 241 239 237 237 238 238 239 240 240 241 241 242 242 243 243 244 244 244 243 242 241 240 238 236 235 233 233 231 229 230 230 230 231 231 232 234 237 241 246 250 253 255 258 262 263 263 264 266 270 278 284 289 292 294 296 296 297 298 299 299 299 299 298 296 294 292 293 297 300 301 304 307 310 315 317 316 315 316 316 315 316 316 315 316
243 243 241 240 239 240 240 241 243 243 243 242 243 243 244 244 245 244 244 243 241 240 239 238 236 235 233 233 231 230 230 230 231 232 232 232 234 237 242 246 249 251 253 257 259 260 261 262 265 271 278 284 288 289 291 294 295 297 298 299 299 299 299 298 295 294 293 294 298 301 304 307 309 310 313 316 315 314 316 317 315 315 316 315 314
245 244 242 242 242 242 243 245 247 248 246 244 244 244 245 245 245 245 244 242 241 240 239 238 236 235 234 232 231 230 230 230 230 231 231 233 235 238 241 245 248 250 252 254 256 258 259 261 266 273 278 283 286 288 291 294 296 297 297 297 298 298 297 296 296 296 298 300 302 304 307 308 309 309 312 314 312 310 313 316 314 314 315 313 310
249 246 244 244 244 245 246 248 250 250 249 246 244 244 245 245 246 245 244 242 241 240 239 238 236 234 233 232 230 229 229 229 230 230 231 232 234 237 241 244 247 248 250 253 254 255 258 262 268 274 279 282 285 288 291 293 294 294 295 296 297 297 298 299 301 303 305 305 305 306 308 308 308 310 310 311 310 309 310 311 309 310 314 313 307
253 249 246 245 247 248 248 248 248 248 248 246 244 244 245 245 245 245 244 242 241 240 239 238 236 234 232 230 229 229 228 228 229 230 231 233 234 237 240 242 244 246 248 249 250 252 256 262 268 273 277 280 283 287 291 293 294 296 297 299 300 301 303 305 305 306 304 303 302 304 305 304 305 308 307 307 308 308 309 308 307 308 310 311 308
256 250 247 247 249 249 247 246 246 246 246 246 244 243 243 244 244 244 243 242 240 239 238 236 235 234 232 230 229 228 228 228 229 230 231 233 234 236 238 240 241 243 244 245 246 250 255 261 267 272 275 279 284 290 293 295 298 299 300 302 302 303 304 303 302 300 299 299 299 300 300 299 301 303 303 305 308 309 309 308 308 308 306 305 306
255 248 248 251 250 248 246 245 245 246 246 245 243 242 242 242 243 243 242 241 239 238 236 235 234 233 232 231 230 229 228 227 227 229 230 231 233 235 236 238 238 239 239 240 243 248 255 262 267 272 277 284 288 291 293 295 296 296 295 296 296 296 295 293 293 292 292 292 293 294 293 294 297 299 300 304 306 307 307 304 302 304 302 300 301
251 246 250 252 249 248 246 244 244 244 245 244 242 241 241 241 241 241 241 240 238 236 235 234 234 232 231 231 230 230 229 227 227 228 230 231 232 233 234 234 235 235 235 237 242 248 255 261 268 275 282 285 287 289 291 293 292 291 291 293 294 292 287 283 283 284 285 287 287 287 288 289 293 295 297 299 301 302 302 299 296 296 295 294 292
250 248 251 252 250 249 247 244 244 244 244 244 242 240 240 240 241 241 240 239 237 235 234 234 233 232 232 231 231 230 228 227 227 228 229 230 231 231 232 232 232 232 234 237 243 248 255 263 272 280 284 284 286 290 291 291 290 289 289 290 291 293 293 289 283 279 279 281 283 285 287 290 293 295 296 297 299 299 297 296 295 294 292 292 290
252 249 252 253 251 250 247 244 244 244 243 243 241 240 240 241 241 240 239 237 236 235 234 234 233 233 232 232 231 230 227 226 226 227 228 229 229 229 230 229 229 231 234 239 244 250 258 269 277 282 283 285 289 290 289 289 288 287 288 291 294 298 299 296 293 290 288 287 287 291 295 294 293 294 296 296 296 296 296 296 297 296 294 293 292
255 253 255 255 253 250 247 244 243 242 242 241 241 240 240 240 240 239 238 236 236 235 235 235 234 233 233 232 231 229 226 225 225 226 227 228 228 227 226 227 228 230 234 240 248 257 266 274 279 281 283 286 289 288 287 287 288 291 294 296 296 296 296 299 302 301 298 296 293 293 294 292 290 290 293 295 296 296 296 295 295 295 295 295 294
257 256 257 257 254 251 247 244 242 241 241 240 240 239 240 240 239 238 236 235 234 234 235 235 234 233 232 231 230 227 224 223 224 225 226 227 228 226 223 226 229 232 237 245 253 262 269 274 277 280 282 285 285 284 285 287 291 293 293 292 293 296 300 303 302 294 290 289 286 285 286 288 290 290 292 293 293 292 291 289 288 289 291 292 291
258 259 259 258 255 250 246 244 242 240 239 239 239 239 239 239 238 237 235 233 232 232 233 233 233 233 232 231 229 225 222 222 223 225 224 224 227 227 225 227 231 235 241 248 254 261 267 271 274 277 279 281 281 281 283 287 288 288 288 293 298 300 302 303 300 294 290 288 287 288 290 292 292 292 291 291 290 289 288 287 286 288 289 289 288
267 266 265 262 257 252 248 244 242 240 239 238 238 239 239 239 238 237 235 234 233 233 233 232 232 232 232 231 228 224 222 222 223 224 223 223 226 228 228 230 233 237 243 248 254 259 264 267 270 273 277 278 278 281 284 285 284 286 293 299 299 297 299 303 302 300 298 296 296 297 298 297 296 295 294 294 295 294 291 288 290 292 291 289 289
281 277 272 266 258 253 249 245 242 241 240 240 240 241 240 239 238 237 235 234 234 234 234 232 231 231 230 229 227 223 221 221 222 223 222 223 225 227 229 231 234 238 244 249 253 257 260 264 267 271 274 275 278 282 283 281 284 291 295 294 292 294 301 305 304 304 303 300 300 300 300 301 300 299 301 303 306 306 299 294 294 293 291 291 291
291 284 276 267 260 255 251 247 244 242 242 242 241 240 240 239 238 237 235 233 234 234 233 232 231 230 229 227 224 221 220 220 222 222 221 222 225 227 228 231 235 240 245 248 251 255 259 262 265 266 267 271 275 277 275 277 285 291 290 289 292 298 306 306 303 301 299 297 298 301 302 303 302 304 310 314 314 313 306 296 289 286 286 287 288
298 290 280 271 262 256 252 248 245 243 243 242 240 240 240 240 239 238 236 234 233 232 231 230 229 228 227 225 222 220 219 220 221 221 220 221 225 227 227 231 236 240 244 247 249 253 257 260 262 262 262 267 269 268 271 279 285 287 288 291 297 301 303 300 296 297 298 299 302 303 303 304 307 313 318 318 318 316 308 296 286 282 283 285 287
302 297 290 280 268 259 253 248 245 244 242 241 240 240 239 239 238 237 235 234 233 230 229 228 227 226 225 223 221 219 218 219 219 218 218 219 223 225 226 229 235 239 241 245 248 251 255 257 258 259 261 264 264 265 275 284 284 287 292 295 298 298 296 294 296 300 302 302 302 303 305 309 314 318 320 321 321 318 305 294 289 287 286 286 286
299 297 295 289 280 267 258 252 248 246 244 242 241 239 238 238 236 235 233 232 230 229 227 225 224 223 222 220 219 217 217 217 216 216 216 217 220 223 225 226 232 236 238 242 246 250 253 254 254 257 259 260 264 271 281 286 287 292 296 296 296 296 296 298 301 302 302 302 304 307 311 315 318 320 322 323 323 318 309 303 300 298 296 294 292
296 293 289 287 283 275 266 259 253 249 247 245 242 240 239 237 235 234 232 230 228 227 226 224 222 221 220 218 216 216 216 216 215 214 215 215 217 221 224 225 228 233 236 240 244 247 248 247 249 253 255 258 268 278 284 288 292 295 297 296 298 299 300 302 304 303 304 307 310 312 315 318 319 321 323 323 322 320 316 313 309 307 304 303 301
297 293 286 281 276 271 267 262 257 254 251 249 247 244 241 238 235 233 231 228 227 226 225 224 222 221 219 217 215 215 215 214 213 212 213 214 214 216 220 223 225 229 235 239 242 242 240 240 243 248 253 261 272 280 286 291 293 292 295 297 299 302 303 304 306 307 310 313 315 316 318 319 320 321 323 324 324 323 321 319 316 313 311 310 308
294 291 285 280 274 268 263 259 255 253 251 249 249 247 245 242 238 235 231 228 227 226 225 223 222 220 219 217 215 215 214 212 211 211 211 211 212 212 214 217 218 224 232 235 235 235 236 238 241 245 250 260 271 281 288 291 289 290 295 298 299 303 306 307 310 314 316 317 318 318 319 320 321 323 326 327 326 324 324 322 319 317 316 314 311
286 286 284 280 273 267 264 259 253 250 247 245 244 244 244 243 240 237 234 230 227 225 224 223 221 219 218 216 215 214 214 212 211 210 210 210 208 207 209 212 214 220 227 230 229 231 234 235 236 239 245 257 272 285 289 290 291 293 296 299 302 306 308 312 316 319 319 320 320 320 322 324 325 327 329 329 326 325 325 322 318 317 317 316 312
278 280 280 277 272 266 262 258 254 251 248 245 244 243 242 241 239 239 239 237 233 229 226 223 222 220 217 215 212 212 212 212 212 211 211 210 208 206 208 213 216 220 223 224 224 225 227 229 230 236 245 259 276 285 286 288 292 296 300 303 306 307 311 316 320 321 321 322 322 323 325 327 328 331 331 329 325 324 325 322 318 316 317 316 312
275 273 271 270 268 264 260 256 253 251 248 246 244 243 242 241 240 240 241 241 239 238 234 230 227 223 219 216 213 211 211 213 214 214 214 212 210 210 212 215 216 216 216 217 218 217 219 223 228 237 250 263 273 276 278 284 290 297 304 308 308 309 315 320 322 323 324 324 324 326 329 331 333 334 331 327 324 324 324 322 318 317 317 315 311
276 272 269 267 266 263 259 255 252 249 246 244 242 240 238 238 237 237 237 237 236 237 237 236 233 227 221 218 217 216 217 217 216 214 212 210 208 210 213 213 210 209 211 211 210 211 215 220 225 236 252 261 264 268 274 284 294 301 306 308 310 314 319 323 325 325 326 326 327 330 332 334 334 333 329 325 324 325 324 321 319 317 317 315 312
276 271 268 266 265 262 259 256 253 249 246 243 240 237 235 234 233 233 234 234 233 231 230 232 232 228 222 219 216 216 217 217 214 210 207 204 203 204 206 206 204 206 209 207 204 206 210 216 223 235 249 256 262 270 279 289 300 306 309 311 315 319 323 327 328 327 327 328 329 332 336 336 333 330 326 325 325 325 324 322 319 318 317 315 312
271 269 267 266 265 263 260 257 254 250 246 242 239 237 234 232 230 229 230 231 231 229 227 227 226 224 221 218 216 214 213 211 209 206 202 199 200 201 202 202 201 202 202 201 201 203 205 211 222 235 248 256 265 276 287 297 306 311 314 317 321 324 328 329 329 327 328 329 331 335 338 337 332 328 326 326 326 324 323 321 320 319 318 315 312
264 266 266 265 263 261 259 256 253 250 246 244 241 238 235 233 230 227 226 226 227 227 226 226 223 220 217 216 216 216 213 208 203 200 196 195 198 199 198 198 199 197 195 195 197 199 202 209 223 237 248 259 270 281 292 303 310 314 317 321 324 328 330 331 330 329 328 330 333 338 339 336 332 330 329 328 327 324 321 320 320 320 319 316 314
259 261 264 264 262 260 258 255 253 251 247 245 242 239 237 234 230 225 220 217 215 216 219 220 219 217 215 214 213 212 208 201 196 193 191 192 195 195 195 195 193 191 192 194 195 197 201 209 224 241 252 263 275 286 297 307 312 316 321 324 325 328 330 332 332 329 328 331 335 338 339 337 334 332 330 329 327 324 321 321 321 321 319 317 315
260 260 262 262 260 258 257 255 254 251 247 243 240 237 234 231 227 222 218 212 207 205 206 207 210 213 214 211 207 203 199 192 189 190 191 191 192 195 196 194 188 187 190 193 194 197 202 213 229 245 256 267 279 292 303 311 316 321 325 326 326 328 330 332 332 330 330 334 336 338 340 339 336 334 331 328 326 323 322 322 322 321 319 318 316
265 261 260 259 258 255 254 253 252 250 247 242 238 235 231 227 224 219 213 209 204 199 196 194 196 203 207 203 196 191 188 186 187 190 191 190 194 198 197 190 185 186 189 191 193 197 204 218 235 247 259 272 284 297 308 315 321 326 328 327 327 328 330 331 332 332 333 334 335 339 341 340 337 336 332 328 325 323 323 323 322 321 320 318 317
269 263 259 258 257 254 252 251 249 248 245 241 236 232 227 223 219 213 206 202 198 193 189 186 183 182 185 186 183 180 179 180 184 186 187 189 194 196 191 187 186 187 188 189 192 198 208 223 239 250 263 277 289 302 312 319 325 328 329 328 328 329 329 330 331 332 332 333 336 341 343 340 337 336 332 328 325 325 324 324 323 322 321 320 318
271 267 263 260 259 255 252 249 247 244 241 237 233 228 222 216 211 205 200 197 193 188 185 182 179 176 174 174 174 173 173 176 180 184 186 190 192 188 184 186 187 187 188 190 193 202 215 229 242 255 269 283 295 307 316 323 327 329 329 329 329 330 330 330 330 331 332 334 339 344 344 341 338 336 332 328 325 325 326 326 324 323 322 322 321
269 268 266 262 258 255 251 248 245 241 236 231 226 221 215 209 204 199 196 192 189 186 183 180 178 176 172 170 171 175 179 184 188 190 189 189 188 185 185 186 186 186 189 191 195 206 222 234 246 261 276 289 301 312 320 326 330 330 329 329 330 332 332 330 330 332 335 336 341 345 345 341 338 336 332 328 326 327 327 326 325 324 323 322 321
267 267 266 262 256 251 248 245 241 237 232 227 222 216 210 205 199 195 192 188 186 184 181 178 176 175 173 174 178 185 190 192 192 191 188 185 185 185 184 185 186 187 189 192 200 213 227 238 251 267 282 295 307 317 322 327 330 329 329 330 330 332 333 332 331 334 336 338 343 347 345 341 338 335 331 328 328 329 328 326 326 326 324 323 322
265 264 264 261 254 248 244 241 238 234 230 225 219 213 207 202 196 193 190 187 183 180 178 177 176 176 178 182 188 193 195 193 188 186 185 185 184 183 182 184 186 188 190 197 206 217 230 241 254 271 287 299 311 320 324 327 328 329 329 331 331 332 333 332 332 334 337 340 346 348 344 341 339 334 330 329 330 330 330 329 328 327 326 325 325
260 259 260 258 252 245 240 238 234 229 225 220 214 208 202 197 193 190 187 183 180 177 176 177 179 179 181 186 191 193 193 189 183 181 181 181 181 181 182 184 186 188 193 201 211 221 232 243 257 274 290 304 315 322 325 326 328 329 330 330 331 333 333 332 333 335 337 342 347 347 344 342 339 333 329 330 331 331 331 330 330 329 327 327 327
255 255 256 253 248 241 237 233 228 223 217 211 206 202 197 192 189 187 184 181 179 178 179 181 181 179 180 185 189 189 186 182 180 179 179 178 179 181 183 184 186 190 196 205 215 224 234 245 262 280 298 312 320 324 325 326 327 328 329 330 331 333 333 332 332 335 339 343 346 346 344 342 338 332 330 332 333 333 333 332 331 330 329 329 328
250 250 249 245 240 234 230 226 221 216 211 206 202 198 195 191 188 186 184 181 180 181 184 185 181 177 178 183 185 183 180 178 177 177 177 178 180 181 182 184 187 192 200 210 218 226 235 248 268 291 311 319 322 324 325 325 326 327 328 330 331 332 333 332 332 335 340 345 346 346 344 340 334 331 331 334 335 334 334 333 333 332 331 331 330
249 247 242 235 229 225 221 217 214 209 204 200 196 193 191 189 187 185 184 182 182 184 185 182 178 178 181 183 182 179 178 176 175 176 177 178 180 181 182 185 189 196 205 213 220 228 241 260 285 306 318 321 322 323 323 322 324 326 327 329 330 331 332 331 330 335 343 346 346 345 341 335 331 331 333 335 336 335 335 334 334 333 332 332 331
247 240 232 226 220 215 211 208 205 201 198 194 191 188 187 186 185 184 184 184 186 187 184 180 179 182 184 181 178 177 176 174 174 175 176 177 179 181 183 188 193 200 207 214 221 233 252 277 300 314 321 322 321 321 321 320 323 325 326 328 329 329 330 329 330 335 344 348 347 343 337 330 329 332 334 335 336 337 336 335 335 334 334 333 333
235 227 220 216 210 205 202 199 196 193 191 189 187 186 185 184 184 185 185 186 187 186 183 181 183 185 183 178 176 175 174 172 173 175 175 177 180 182 186 191 196 202 209 215 224 240 263 291 309 319 324 323 320 320 320 320 321 324 326 327 327 328 328 328 328 333 344 350 347 339 331 327 330 334 335 336 338 338 337 337 336 336 336 336 335
220 213 208 204 200 197 194 192 189 187 185 184 183 183 184 184 184 185 185 186 186 184 182 183 184 183 180 177 175 173 172 172 173 174 176 179 182 184 187 193 198 203 210 218 230 249 274 299 314 320 322 322 320 320 319 319 320 323 326 326 326 327 328 326 324 330 344 351 344 333 326 328 333 335 335 337 339 339 338 338 338 338 338 338 338
206 201 197 194 193 191 189 186 185 184 183 183 182 183 183 184 185 185 185 184 183 182 183 183 182 180 177 174 172 171 171 172 174 176 178 181 183 185 189 194 199 205 215 225 239 260 282 300 314 319 319 320 320 319 319 320 321 322 324 326 326 327 327 324 323 333 348 349 337 327 325 332 337 337 336 338 341 340 340 339 339 339 340 340 340
190 189 188 186 185 184 183 182 182 182 182 183 183 183 184 184 185 185 184 183 182 181 181 180 177 174 173 172 172 172 173 174 176 179 181 182 184 186 190 195 202 210 221 232 245 265 285 300 310 314 315 318 319 318 319 320 320 321 324 326 325 326 328 326 326 338 350 345 331 324 327 335 339 338 338 340 343 343 342 342 342 342 342 341 341
178 179 179 179 179 179 180 180 180 180 181 183 183 183 184 183 182 182 181 180 179 177 176 175 173 172 172 172 172 173 174 176 178 180 182 183 185 188 193 200 207 215 225 237 249 267 283 296 304 309 312 315 317 317 318 319 319 321 324 324 324 328 329 326 328 341 349 339 327 325 331 338 341 340 340 342 344 345 344 344 344 344 344 344 344